Location: Arrodets-la-Barthe
(43.0306°N, 0.2829°E)
Time: 06:48:33
(UTC+00:00)

Cosmos 2278 - Pass Details

Date: 01 June 2022
Orbit: 838 x 854 km, 71.1° (Epoch: 03 July)

Event Time Altitude Azimuth Distance (km) Brightness Sun altitude
Rises 20:05:59 0° 205° (SSW) 3,381 6.7 -6.0°
Reaches altitude 10° 20:08:24 10° 206° (SSW) 2,452 6.0 -6.4°
Maximum altitude 20:14:03 84° 295° (WNW) 855 3.8 -7.2°
Drops below altitude 10° 20:19:45 10° 23° (NNE) 2,479 6.4 -8.0°
Sets 20:22:13 0° 25° (NNE) 3,421 7.1 -8.3°
